FENGYUN 1C DEB, 31272

Orbit data source: Space-Track

FENGYUN 1C DEB, 31272 is space debris in SSO originally from a launch on Mon, 10 May 1999 UTC launched from the Taiyaun Space Center, China (TSC). Fengyun 1C debris stems from the Chinese weather satellite Fengyun-1C, which was intentionally destroyed by a Chinese anti-satellite missile in 2007. This event dramatically increased the amount of space debris, with thousands of trackable fragments posing hazards to satellites and human spaceflight. The Fengyun 1C debris cloud has become a focal point in discussions about space sustainability and the need for international regulations to prevent the creation of new debris.

Loading next visibility...
Identifier
31272, 1999-025BNE
Orbit
SSO
Country
Flag of CNCN / PRC
Related business
Manufacturer
Unknown
Mission
Spacecraft
Bus & Motor
Unknown
Mass
Unknown
Launch date (UTC)
1999-05-10 (27 years ago)
Launch vehicle
Unknown
Launch site
Taiyaun Space Center, China (TSC)
Object type
Payload
Rocket body
Debris
Shape & HBR
Unknown shape, 0.1 m
Radar Cross Section
Medium (>0.1 m² and <1 m²)

Expand to show TLE details & history
Last TLE update: 1 day ago

TLE from 1 day ago
0 FENGYUN 1C DEB
1 31272U 99025BNE 26206.14156649  .00000782  00000-0  34506-3 0  9990
2 31272  99.0674  90.0067 0104937 189.9120 169.9988 14.23419053  1720
Epoch: 2026-07-25T03:23Z
TLE epoch observation values (Epoch: 2026-07-25T03:23:51.344Z)
Latitude
-0.00008°
Longitude
96.18468°
Altitude
891.082 km
Speed
7.368 km/s
True Right ascension
06h 00m 01s
True Declination
0° 00' 00"
Sunlit
Object was in daylight at epoch
Visualization orbit readout
Latitude
Unknown
Longitude
Unknown
Altitude
Unknown
Speed
Unknown
Apparent Right ascension
Unknown
Apparent Declination
Unknown
Sunlit
N/A
Visualization observer readout
Local Sidereal Time
20:25:23
Azimuth
Unknown
Elevation
Unknown
Doppler factor
Unknown
Orbital elements
Apogee altitude
886.425 km
Perigee altitude
735.544 km
Semi-major axis
7,189.121 km
Eccentricity
0.01049
Inclination
99.0674°
RAAN
90.0067°
Arg. of periapsis
189.912°
True anomaly
170.20497°
Mean anomaly
169.9988°
Eccentric anomaly
170.10215°
Mean motion
3.56065 °/min
Orbital period
101.11 mins
BSTAR
0.00034506
Loading maneuver chart data...
Computing Atmospheric mass density...

Documentation

Showing up to 5 results
|